Location: Carson
(33.8314°N, 118.2820°W)
Time: 11:57:54
(UTC+00:00)

NOSS 3-4 (A) - Pass Details

Date: 23 November 2020
Orbit: 879 x 1333 km, 63.4° (Epoch: 18 January)

Event Time Altitude Azimuth Distance (km) Brightness Sun altitude
Rises 13:35:32 0° 228° (SW) 3,464 6.1 -12.1°
Reaches altitude 10° 13:38:07 10° 234° (SW) 2,526 5.3 -11.6°
Maximum altitude 13:43:38 44° 306° (NW) 1,215 3.6 -10.5°
Drops below altitude 10° 13:49:26 10° 18° (NNE) 2,653 5.8 -9.3°
Sets 13:52:12 0° 25° (NNE) 3,656 6.6 -8.8°
